SCP
0 0 0 0 0 0 0 0 0 0 0 0 0 0 0 -0 0 0 0 0 0 0 0 0 0 0 0 -0 -0 0 0 0 0 0 0 0 0 0 0 0 0 0 0 0
0 0 0 0 0 0 0 0 0 0 0 0 0 0 0 0 0 0 0 0 0 0 0 0 0 0 0 0 0 -0 -0 0 0 0 0 0 0 0 0 0 0 0 0 0
0 0 0 0 0 0 -0 0 0 0 0 0 0 0 0 0 0 0 0 0 0 0 0 0 0 0 0 0 0 0 0 0 0 0 0 0 0 0 0 0 0 0 0 0
0 0 0 0 0 0 0 0 0 0 0 0 0 0 0 0 0 0 0 0 0 0 0 0 0 0 0 0 0 0 0 0 0 0 0 0 0 0 0 0 0 0 0 0
0 0 0 0 0 0 0 0 0 0 0 0 0 0 0 0 0 0 0 0 0 0 0 0 0 0 0 0 0 0 0 0 0 0 0 0 0 0 0 0 0 0 0 0
0 0 0 0 0 0 0 0 0 0 -0 -0 -0 -0 0 0 -0 -0 -0 -0 0 0 0 0 0 0 0 0 0 0 0 0 0 0 0 0 0 0 0 0 0 0 0 0
0 0 0 0 0 0 0 0 0 -0 -0 -0 -0 -0 -0 -0 -0 -0 -0 -0 -0 -0 -0 -0 -0 -0 0 0 0 0 0 0 0 0 0 0 0 0 0 0 0 0 0 0
0 0 0 0 0 0 0 -0 -0 -0 -0 -0 -0 -0 -0 -0 -0 -0 -0 -0 -0 -0 -0 -0 -0 -0 -0 -0 -0 -0 0 0 0 0 0 0 0 0 0 0 0 0 0 0
0 0 0 0 0 0 0 -0 0 0 0 0 0 -0 -0 -0 -0 -0 -0 -0 -0 -0 -0 -0 -0 -0 -0 -0 -0 -0 -0 -0 0 0 0 0 0 0 0 0 0 0 0 0
0 0 0 0 0 0 0 0 0 0 0 0 0 0 0 -0 -0 -0 -0 -0 -0 -0 -0 -0 -0 -0 0 0 0 -0 0 0 0 0 0 0 0 0 0 0 0 0 0 0
0 0 0 0 0 0 0 0 0 0 0 0 0 0 0 0 0 0 0 -0 -0 -0 -0 -0 -0 -0 -0 -0 -0 0 0 0 0 0 0 0 0 0 0 0 0 0 0 0
0 0 0 0 0 0 0 0 0 0 0 0 0 0 0 0 0 0 0 0 0 -0 -0 -0 -0 0 -0 -0 -0 -0 0 0 0 0 0 0 0 0 0 0 0 0 0 0
0 0 0 0 0 0 0 0 0 0 0 0 0 0 0 0 0 0 0 0 0 0 -0 -0 -0 -0 0 -0 -0 -0 0 0 0 0 0 0 0 0 0 0 0 0 0 0
0 0 0 0 0 0 0 0 0 0 0 0 0 0 0 0 0 0 0 0 0 0 0 0 0 0 -0 -0 0 0 0 0 0 0 0 0 0 0 0 0 0 0 0 0
0 0 0 0 0 0 0 0 0 0 0 0 0 0 0 0 0 0 0 0 0 0 0 0 0 0 0 0 0 0 0 0 0 0 0 0 0 0 0 0 0 0 0 0
0 0 0 0 0 0 0 0 0 0 0 0 0 0 0 0 0 0 0 0 0 0 0 0 0 0 0 0 0 0 0 0 0 0 0 0 0 0 0 0 0 0 0 0
0 0 0 0 0 0 0 0 0 0 0 0 0 0 0 0 0 0 0 0 0 0 0 0 0 0 0 0 0 0 0 0 0 0 0 0 0 0 0 0 0 0 0 0
0 0 0 0 0 0 0 0 0 0 0 0 0 0 0 0 0 -0 0 0 0 0 0 0 0 0 0 0 0 0 0 0 0 0 0 0 0 0 0 0 0 0 0 0
0 0 0 0 0 0 0 0 0 0 0 -0 -0 -0 0 0 -0 -0 -0 -0 -0 -0 0 0 0 0 0 0 0 0 0 0 0 0 0 0 0 0 0 0 0 0 0 0
0 0 0 0 0 0 0 0 0 -0 -0 -0 -0 -0 0 0 0 0 0 0 0 0 0 0 0 0 0 0 0 0 0 0 0 0 0 0 0 0 0 0 0 0 0 0
0 0 0 0 0 0 0 -0 -0 -0 -0 -0 -0 0 0 0 0 0 0 0 0 0 0 0 0 0 0 0 0 0 0 0 0 0 0 0 0 0 0 0 0 0 0 0
0 0 0 0 0 -0 -0 -0 0 -0 -0 0 0 0 0 0 0 0 0 0 0 0 -0 0 0 -0 0 0 0 0 0 0 0 0 0 0 0 0 0 0 0 0 0 0
0 0 0 0 -0 -0 0 0 0 0 -0 0 0 0 0 0 0 0 0 0 0 0 0 -0 0 0 0 0 -0 -0 0 0 0 0 0 0 0 0 0 0 0 0 0 0
0 0 -0 -0 -0 -0 -0 0 -0 -0 -0 -0 0 0 0 0 0 0 0 0 0 0 0 0 -0 0 0 0 -0 -0 -0 -0 -0 -0 -0 0 0 0 0 0 0 0 0 0
0 -0 -0 -0 -0 -0 -0 -0 -0 0 -0 0 0 0 0 0 0 0 0 0 0 0 0 0 0 0 0 0 -0 -0 -0 -0 -0 -0 -0 -0 -0 0 0 0 0 0 0 0
-0 -0 -0 -0 0 0 0 0 0 0 0 0 0 0 0 0 0 0 0 0 0 0 0 0 0 0 0 0 0 -0 -0 -0 -0 0 0 0 -0 -0 -0 -0 -0 -0 -0 0
-0 0 0 0 0 0 0 0 0 0 -0 0 0 0 0 0 0 0 0 0 0 0 0 0 0 0 0 0 0 0 0 0 0 0 0 0 0 0 -0 -0 0 0 0 0
Wind_Speed_500mb
37 31 35 40 47 55 60 55 48 46 48 45 47 42 34 53 55 59 61 63 66 69 69 69 69 66 68 71 81 87 87 94 106 101 106 109 107 105 107 106 114 112 107 103
42 46 36 37 32 34 29 30 44 51 61 36 47 64 64 52 55 57 60 59 58 67 73 79 83 82 83 80 84 90 96 97 94 109 120 105 110 107 105 108 111 107 108 105
38 35 24 28 38 36 42 29 22 17 13 28 34 37 39 45 58 57 56 55 58 61 74 82 83 84 89 90 88 88 83 92 89 89 106 117 109 107 105 110 106 104 104 106
31 33 41 22 5 10 2 16 17 16 21 25 30 44 34 42 62 57 57 52 55 70 86 79 79 81 89 89 87 92 79 69 76 82 91 102 103 109 106 105 102 100 103 103
5 11 23 31 15 11 10 8 17 11 10 20 35 50 19 53 55 54 53 52 67 78 72 83 81 80 84 92 89 85 91 79 73 70 77 88 98 101 97 98 100 101 103 102
5 7 10 4 11 17 13 15 8 7 7 10 24 18 25 59 57 52 57 63 69 73 77 87 83 83 85 83 87 78 78 87 83 67 63 71 79 86 91 95 96 94 99 98
9 8 14 7 14 11 7 13 42 3 12 17 8 17 57 70 64 69 73 78 78 81 83 83 87 84 88 84 84 86 74 75 84 78 61 56 62 71 81 86 88 90 91 96
3 1 16 24 27 5 13 32 45 19 23 30 36 49 51 58 65 71 71 74 75 78 88 91 90 86 90 88 85 86 81 80 72 75 70 55 53 57 69 76 82 83 88 93
16 12 18 65 50 60 39 43 36 31 42 36 44 51 55 64 68 73 74 80 83 90 102 105 103 96 101 93 87 80 81 79 76 65 70 65 52 53 59 70 76 81 86 88
4 23 29 42 55 65 66 51 45 44 46 38 41 49 55 60 72 74 78 84 88 96 104 112 109 111 101 101 94 84 86 83 74 69 63 60 61 55 53 67 71 76 83 88
19 33 43 63 59 57 49 45 52 53 50 51 46 59 52 64 74 77 80 84 88 98 107 115 112 111 108 104 98 94 91 85 87 77 65 68 70 70 69 68 63 70 82 84
29 55 44 47 65 59 46 48 54 51 60 59 53 65 69 80 82 78 86 94 97 104 108 117 114 113 110 103 97 91 89 85 77 83 74 67 70 77 80 80 77 74 78 78
51 79 65 70 64 54 53 48 46 49 57 68 79 70 72 78 89 93 101 105 107 112 117 119 116 116 107 96 89 87 84 84 72 80 83 82 71 74 81 82 74 72 73 71
67 57 48 53 30 40 37 46 57 67 71 71 74 78 76 83 97 98 96 95 99 112 119 112 110 112 96 81 75 79 79 75 74 69 87 87 79 66 75 79 77 76 57 55
41 38 36 41 43 42 44 53 64 73 79 86 79 82 79 82 86 94 91 93 100 103 105 99 99 103 84 74 75 81 82 83 76 66 82 84 73 63 69 68 67 65 60 53
28 30 31 33 42 49 55 60 67 80 83 86 90 92 94 91 91 91 88 85 86 94 91 89 91 86 80 77 81 81 79 78 68 61 76 74 71 66 65 67 62 60 64 79
26 24 38 47 49 57 63 66 65 70 87 92 97 98 94 90 86 84 83 83 82 86 84 83 88 82 77 72 69 71 71 67 58 56 71 73 69 66 64 62 61 63 70 79
25 30 35 44 55 64 76 76 80 82 86 90 89 84 83 82 84 86 88 87 84 83 78 79 68 61 57 55 56 58 56 51 52 62 62 61 57 55 55 54 61 69 75 75
29 37 42 47 53 63 72 78 78 79 80 76 77 80 81 80 80 80 77 73 70 70 68 59 52 48 46 42 37 41 33 30 41 47 46 42 40 45 53 62 70 77 83 83
38 44 50 56 58 60 70 69 70 71 66 63 68 74 75 72 69 67 66 58 54 54 54 50 45 40 35 33 29 22 16 16 21 24 28 33 43 53 63 72 74 76 82 81
48 52 57 60 64 61 58 58 58 59 57 55 58 60 63 67 60 57 51 53 52 47 43 38 35 32 29 25 17 11 2 7 16 25 33 41 46 53 61 64 73 82 86 83
54 56 58 58 58 60 50 47 45 47 48 47 44 47 53 58 57 55 39 43 48 44 40 37 36 32 27 19 14 11 7 7 13 21 28 34 39 46 54 59 64 71 72 69
51 50 50 48 46 47 44 39 39 37 37 33 35 39 42 45 45 53 62 54 49 43 35 35 33 32 24 18 17 16 15 15 16 17 20 24 30 37 42 48 53 56 61 59
43 39 39 36 34 36 38 37 30 25 23 23 25 29 34 37 30 38 41 43 42 41 36 36 33 29 27 29 28 27 26 24 22 20 19 19 22 26 29 36 46 49 47 49
31 31 29 30 31 31 32 28 23 18 17 17 19 21 22 26 33 39 38 39 40 42 44 44 42 40 41 41 41 41 41 40 38 36 36 35 37 39 43 44 40 38 40 42
24 25 25 20 20 24 24 20 18 17 17 17 18 19 20 23 27 29 33 36 37 39 42 43 43 43 44 44 44 44 44 43 40 39 37 37 36 36 37 36 36 35 33 30
18 19 20 17 17 18 19 18 16 16 19 20 19 20 21 24 26 27 28 31 33 36 37 39 41 41 39 38 37 36 35 34 33 31 31 31 30 29 28 26 24 21 19 16
Wind_Direction_500mb
278 288 283 283 289 287 275 266 255 262 272 281 275 284 355 356 23 27 21 11 0 355 356 353 348 337 324 315 312 306 302 279 263 257 257 254 249 250 247 246 244 240 236 233
272 282 281 285 282 267 281 289 281 283 285 334 20 10 3 30 23 13 3 354 349 345 350 349 348 346 341 336 327 314 301 287 283 268 256 255 254 250 249 246 241 239 235 233
272 275 297 282 261 277 278 319 331 317 29 9 13 6 349 18 8 360 349 344 342 342 336 336 338 341 337 336 338 339 308 292 288 280 269 259 253 252 248 245 242 238 235 232
274 293 273 271 212 101 57 72 29 55 31 17 354 338 329 347 350 347 339 338 340 328 326 330 330 327 325 332 337 338 344 317 298 288 275 264 258 251 246 244 243 240 234 231
224 220 282 290 350 14 9 53 36 10 0 355 343 332 323 346 340 330 331 326 325 326 324 320 329 326 319 320 328 333 339 344 324 302 284 271 260 251 247 243 240 236 232 228
340 256 236 101 305 271 252 248 235 216 299 328 339 341 316 331 330 323 320 325 327 328 328 322 326 326 322 318 315 325 332 328 334 326 305 283 266 256 248 242 239 234 231 230
253 254 286 226 312 342 59 282 327 200 235 283 282 288 299 318 321 320 325 326 326 325 322 322 322 323 319 318 316 317 318 322 320 327 320 299 279 261 249 241 237 233 231 231
55 106 272 13 354 112 232 298 293 267 279 291 290 299 300 305 308 316 322 326 327 321 319 321 318 320 316 312 313 313 315 309 306 312 319 315 286 267 253 243 235 232 230 229
191 215 312 311 294 289 290 287 258 262 291 284 291 294 300 302 307 312 315 321 322 321 321 321 319 316 312 313 314 312 307 307 299 290 296 301 297 279 258 246 238 233 230 228
28 265 262 270 280 286 288 277 265 284 290 281 287 292 290 296 303 306 310 314 317 316 316 316 316 312 310 308 309 304 293 291 292 290 278 274 277 273 259 251 244 240 233 228
253 268 273 273 270 280 286 272 275 285 282 285 289 293 292 293 297 300 303 305 306 308 309 309 310 308 306 306 303 302 296 289 284 280 283 273 263 260 257 256 253 248 244 237
255 265 264 274 282 290 281 278 282 282 288 293 295 298 302 300 302 300 300 302 302 304 306 307 306 303 302 301 302 300 293 287 280 279 273 272 267 261 257 253 249 246 244 245
254 267 272 273 276 281 285 283 282 287 293 298 302 303 303 299 299 300 301 301 302 304 304 305 302 299 300 299 298 295 291 287 281 275 274 270 265 261 258 253 253 249 244 244
263 266 267 274 270 280 284 287 292 295 299 305 307 307 303 300 301 300 297 299 299 300 301 300 298 296 301 302 297 292 290 284 279 269 268 270 266 265 261 253 245 240 230 221
261 267 265 274 287 291 296 301 302 302 306 308 309 305 304 300 296 297 297 298 300 301 300 301 298 296 304 304 298 295 290 284 278 267 265 264 268 262 256 250 245 240 230 209
285 289 289 291 298 305 307 308 307 306 310 310 309 310 309 306 302 302 303 305 303 301 302 301 298 302 305 303 297 293 290 285 275 262 261 263 262 255 246 242 236 230 214 203
309 307 305 305 311 308 306 309 309 307 311 312 313 314 313 311 308 307 311 311 308 304 303 302 302 307 303 297 294 292 291 287 272 263 258 258 256 250 243 235 228 213 202 200
300 299 299 300 306 310 310 310 311 314 314 316 318 317 316 313 307 307 308 310 308 305 306 307 306 306 305 305 305 298 292 283 263 257 256 248 244 239 231 221 205 194 185 181
297 302 304 304 306 305 307 311 316 317 319 322 322 322 316 310 309 308 310 310 310 308 314 318 317 315 314 317 305 308 300 282 256 245 241 237 226 217 206 197 186 184 183 174
309 308 308 309 311 313 313 317 317 318 323 327 325 320 319 318 326 328 325 320 322 323 321 321 323 325 322 320 321 314 293 255 234 223 216 209 204 197 189 187 186 183 176 186
314 315 315 316 315 316 317 320 319 320 327 326 326 327 331 338 342 339 340 337 343 344 339 337 337 337 338 343 343 339 330 176 179 181 183 184 185 186 185 185 182 180 184 189
317 317 316 316 317 317 324 322 320 323 321 325 333 338 341 342 341 344 353 346 344 350 347 355 355 352 353 358 10 24 57 111 144 161 169 174 178 179 183 186 189 190 191 191
316 316 316 318 320 319 320 325 324 319 321 330 337 342 344 344 342 342 347 357 351 354 3 8 2 6 14 29 47 63 79 95 115 135 151 162 170 176 180 183 186 188 185 180
319 322 323 324 320 322 325 326 323 324 327 335 341 343 343 353 14 4 5 7 12 15 19 24 28 37 50 59 65 72 78 86 95 107 121 136 149 155 162 162 161 163 165 164
328 325 326 333 329 328 327 330 336 341 351 357 358 358 1 3 5 10 15 25 32 39 46 50 53 59 65 71 76 80 83 85 89 96 103 111 119 129 137 144 148 150 158 167
334 339 335 330 334 341 341 347 356 4 8 14 17 18 19 21 22 25 31 34 40 46 53 55 59 64 67 70 74 78 82 86 92 98 104 111 120 130 139 147 154 160 167 173
9 2 3 10 12 10 9 11 16 21 24 24 26 30 31 28 28 30 34 38 41 45 49 53 57 59 62 67 73 78 85 92 99 107 115 121 127 133 139 146 153 161 171 184
Wind_Speed_850mb
37 31 35 40 47 55 60 55 48 46 48 45 47 42 34 53 55 59 61 63 66 69 69 69 69 66 68 71 81 87 87 94 106 101 106 109 107 105 107 106 114 112 107 103
42 46 36 37 32 34 29 30 44 51 61 36 47 64 64 52 55 57 60 59 58 67 73 79 83 82 83 80 84 90 96 97 94 109 120 105 110 107 105 108 111 107 108 105
38 35 24 28 38 36 42 29 22 17 13 28 34 37 39 45 58 57 56 55 58 61 74 82 83 84 89 90 88 88 83 92 89 89 106 117 109 107 105 110 106 104 104 106
31 33 41 22 5 10 2 16 17 16 21 25 30 44 34 42 62 57 57 52 55 70 86 79 79 81 89 89 87 92 79 69 76 82 91 102 103 109 106 105 102 100 103 103
5 11 23 31 15 11 10 8 17 11 10 20 35 50 19 53 55 54 53 52 67 78 72 83 81 80 84 92 89 85 91 79 73 70 77 88 98 101 97 98 100 101 103 102
5 7 10 4 11 17 13 15 8 7 7 10 24 18 25 59 57 52 57 63 69 73 77 87 83 83 85 83 87 78 78 87 83 67 63 71 79 86 91 95 96 94 99 98
9 8 14 7 14 11 7 13 42 3 12 17 8 17 57 70 64 69 73 78 78 81 83 83 87 84 88 84 84 86 74 75 84 78 61 56 62 71 81 86 88 90 91 96
3 1 16 24 27 5 13 32 45 19 23 30 36 49 51 58 65 71 71 74 75 78 88 91 90 86 90 88 85 86 81 80 72 75 70 55 53 57 69 76 82 83 88 93
16 12 18 65 50 60 39 43 36 31 42 36 44 51 55 64 68 73 74 80 83 90 102 105 103 96 101 93 87 80 81 79 76 65 70 65 52 53 59 70 76 81 86 88
4 23 29 42 55 65 66 51 45 44 46 38 41 49 55 60 72 74 78 84 88 96 104 112 109 111 101 101 94 84 86 83 74 69 63 60 61 55 53 67 71 76 83 88
19 33 43 63 59 57 49 45 52 53 50 51 46 59 52 64 74 77 80 84 88 98 107 115 112 111 108 104 98 94 91 85 87 77 65 68 70 70 69 68 63 70 82 84
29 55 44 47 65 59 46 48 54 51 60 59 53 65 69 80 82 78 86 94 97 104 108 117 114 113 110 103 97 91 89 85 77 83 74 67 70 77 80 80 77 74 78 78
51 79 65 70 64 54 53 48 46 49 57 68 79 70 72 78 89 93 101 105 107 112 117 119 116 116 107 96 89 87 84 84 72 80 83 82 71 74 81 82 74 72 73 71
67 57 48 53 30 40 37 46 57 67 71 71 74 78 76 83 97 98 96 95 99 112 119 112 110 112 96 81 75 79 79 75 74 69 87 87 79 66 75 79 77 76 57 55
41 38 36 41 43 42 44 53 64 73 79 86 79 82 79 82 86 94 91 93 100 103 105 99 99 103 84 74 75 81 82 83 76 66 82 84 73 63 69 68 67 65 60 53
28 30 31 33 42 49 55 60 67 80 83 86 90 92 94 91 91 91 88 85 86 94 91 89 91 86 80 77 81 81 79 78 68 61 76 74 71 66 65 67 62 60 64 79
26 24 38 47 49 57 63 66 65 70 87 92 97 98 94 90 86 84 83 83 82 86 84 83 88 82 77 72 69 71 71 67 58 56 71 73 69 66 64 62 61 63 70 79
25 30 35 44 55 64 76 76 80 82 86 90 89 84 83 82 84 86 88 87 84 83 78 79 68 61 57 55 56 58 56 51 52 62 62 61 57 55 55 54 61 69 75 75
29 37 42 47 53 63 72 78 78 79 80 76 77 80 81 80 80 80 77 73 70 70 68 59 52 48 46 42 37 41 33 30 41 47 46 42 40 45 53 62 70 77 83 83
38 44 50 56 58 60 70 69 70 71 66 63 68 74 75 72 69 67 66 58 54 54 54 50 45 40 35 33 29 22 16 16 21 24 28 33 43 53 63 72 74 76 82 81
48 52 57 60 64 61 58 58 58 59 57 55 58 60 63 67 60 57 51 53 52 47 43 38 35 32 29 25 17 11 2 7 16 25 33 41 46 53 61 64 73 82 86 83
54 56 58 58 58 60 50 47 45 47 48 47 44 47 53 58 57 55 39 43 48 44 40 37 36 32 27 19 14 11 7 7 13 21 28 34 39 46 54 59 64 71 72 69
51 50 50 48 46 47 44 39 39 37 37 33 35 39 42 45 45 53 62 54 49 43 35 35 33 32 24 18 17 16 15 15 16 17 20 24 30 37 42 48 53 56 61 59
43 39 39 36 34 36 38 37 30 25 23 23 25 29 34 37 30 38 41 43 42 41 36 36 33 29 27 29 28 27 26 24 22 20 19 19 22 26 29 36 46 49 47 49
31 31 29 30 31 31 32 28 23 18 17 17 19 21 22 26 33 39 38 39 40 42 44 44 42 40 41 41 41 41 41 40 38 36 36 35 37 39 43 44 40 38 40 42
24 25 25 20 20 24 24 20 18 17 17 17 18 19 20 23 27 29 33 36 37 39 42 43 43 43 44 44 44 44 44 43 40 39 37 37 36 36 37 36 36 35 33 30
18 19 20 17 17 18 19 18 16 16 19 20 19 20 21 24 26 27 28 31 33 36 37 39 41 41 39 38 37 36 35 34 33 31 31 31 30 29 28 26 24 21 19 16
Wind_Direction_850mb
278 288 283 283 289 287 275 266 255 262 272 281 275 284 355 356 23 27 21 11 0 355 356 353 348 337 324 315 312 306 302 279 263 257 257 254 249 250 247 246 244 240 236 233
272 282 281 285 282 267 281 289 281 283 285 334 20 10 3 30 23 13 3 354 349 345 350 349 348 346 341 336 327 314 301 287 283 268 256 255 254 250 249 246 241 239 235 233
272 275 297 282 261 277 278 319 331 317 29 9 13 6 349 18 8 360 349 344 342 342 336 336 338 341 337 336 338 339 308 292 288 280 269 259 253 252 248 245 242 238 235 232
274 293 273 271 212 101 57 72 29 55 31 17 354 338 329 347 350 347 339 338 340 328 326 330 330 327 325 332 337 338 344 317 298 288 275 264 258 251 246 244 243 240 234 231
224 220 282 290 350 14 9 53 36 10 0 355 343 332 323 346 340 330 331 326 325 326 324 320 329 326 319 320 328 333 339 344 324 302 284 271 260 251 247 243 240 236 232 228
340 256 236 101 305 271 252 248 235 216 299 328 339 341 316 331 330 323 320 325 327 328 328 322 326 326 322 318 315 325 332 328 334 326 305 283 266 256 248 242 239 234 231 230
253 254 286 226 312 342 59 282 327 200 235 283 282 288 299 318 321 320 325 326 326 325 322 322 322 323 319 318 316 317 318 322 320 327 320 299 279 261 249 241 237 233 231 231
55 106 272 13 354 112 232 298 293 267 279 291 290 299 300 305 308 316 322 326 327 321 319 321 318 320 316 312 313 313 315 309 306 312 319 315 286 267 253 243 235 232 230 229
191 215 312 311 294 289 290 287 258 262 291 284 291 294 300 302 307 312 315 321 322 321 321 321 319 316 312 313 314 312 307 307 299 290 296 301 297 279 258 246 238 233 230 228
28 265 262 270 280 286 288 277 265 284 290 281 287 292 290 296 303 306 310 314 317 316 316 316 316 312 310 308 309 304 293 291 292 290 278 274 277 273 259 251 244 240 233 228
253 268 273 273 270 280 286 272 275 285 282 285 289 293 292 293 297 300 303 305 306 308 309 309 310 308 306 306 303 302 296 289 284 280 283 273 263 260 257 256 253 248 244 237
255 265 264 274 282 290 281 278 282 282 288 293 295 298 302 300 302 300 300 302 302 304 306 307 306 303 302 301 302 300 293 287 280 279 273 272 267 261 257 253 249 246 244 245
254 267 272 273 276 281 285 283 282 287 293 298 302 303 303 299 299 300 301 301 302 304 304 305 302 299 300 299 298 295 291 287 281 275 274 270 265 261 258 253 253 249 244 244
263 266 267 274 270 280 284 287 292 295 299 305 307 307 303 300 301 300 297 299 299 300 301 300 298 296 301 302 297 292 290 284 279 269 268 270 266 265 261 253 245 240 230 221
261 267 265 274 287 291 296 301 302 302 306 308 309 305 304 300 296 297 297 298 300 301 300 301 298 296 304 304 298 295 290 284 278 267 265 264 268 262 256 250 245 240 230 209
285 289 289 291 298 305 307 308 307 306 310 310 309 310 309 306 302 302 303 305 303 301 302 301 298 302 305 303 297 293 290 285 275 262 261 263 262 255 246 242 236 230 214 203
309 307 305 305 311 308 306 309 309 307 311 312 313 314 313 311 308 307 311 311 308 304 303 302 302 307 303 297 294 292 291 287 272 263 258 258 256 250 243 235 228 213 202 200
300 299 299 300 306 310 310 310 311 314 314 316 318 317 316 313 307 307 308 310 308 305 306 307 306 306 305 305 305 298 292 283 263 257 256 248 244 239 231 221 205 194 185 181
297 302 304 304 306 305 307 311 316 317 319 322 322 322 316 310 309 308 310 310 310 308 314 318 317 315 314 317 305 308 300 282 256 245 241 237 226 217 206 197 186 184 183 174
309 308 308 309 311 313 313 317 317 318 323 327 325 320 319 318 326 328 325 320 322 323 321 321 323 325 322 320 321 314 293 255 234 223 216 209 204 197 189 187 186 183 176 186
314 315 315 316 315 316 317 320 319 320 327 326 326 327 331 338 342 339 340 337 343 344 339 337 337 337 338 343 343 339 330 176 179 181 183 184 185 186 185 185 182 180 184 189
317 317 316 316 317 317 324 322 320 323 321 325 333 338 341 342 341 344 353 346 344 350 347 355 355 352 353 358 10 24 57 111 144 161 169 174 178 179 183 186 189 190 191 191
316 316 316 318 320 319 320 325 324 319 321 330 337 342 344 344 342 342 347 357 351 354 3 8 2 6 14 29 47 63 79 95 115 135 151 162 170 176 180 183 186 188 185 180
319 322 323 324 320 322 325 326 323 324 327 335 341 343 343 353 14 4 5 7 12 15 19 24 28 37 50 59 65 72 78 86 95 107 121 136 149 155 162 162 161 163 165 164
328 325 326 333 329 328 327 330 336 341 351 357 358 358 1 3 5 10 15 25 32 39 46 50 53 59 65 71 76 80 83 85 89 96 103 111 119 129 137 144 148 150 158 167
334 339 335 330 334 341 341 347 356 4 8 14 17 18 19 21 22 25 31 34 40 46 53 55 59 64 67 70 74 78 82 86 92 98 104 111 120 130 139 147 154 160 167 173
9 2 3 10 12 10 9 11 16 21 24 24 26 30 31 28 28 30 34 38 41 45 49 53 57 59 62 67 73 78 85 92 99 107 115 121 127 133 139 146 153 161 171 184